IZ1GCT Weather Reports


Display with metric or nautical units.
time (UTC)temp
F
wind
direction
speed
MPH
gust
MPH
rain 1hr
in
rain 24hr
in
rain mn
in
humidity
%
barometer
mb
20260902110421 83 147 5.0 6.0 0.00 0.00 0.00 42 1023.2
20260902105921 82 158 5.0 6.0 0.00 0.00 0.00 41 1023.2
20260902105421 82 158 8.0 13.0 0.00 0.00 0.00 41 1023.3
20260902104920 82 138 3.0 6.0 0.00 0.00 0.00 41 1023.4
20260902104421 82 119 7.0 10.0 0.00 0.00 0.00 40 1023.4
20260902103920 82 112 7.0 10.0 0.00 0.00 0.00 40 1023.5
20260902103421 82 152 5.0 7.0 0.00 0.00 0.00 39 1023.5
20260902102920 82 135 2.0 8.0 0.00 0.00 0.00 40 1023.6
20260902102420 83 140 6.0 10.0 0.00 0.00 0.00 40 1023.7
20260902101921 82 120 5.0 6.0 0.00 0.00 0.00 40 1023.8
20260902101421 82 135 5.0 6.0 0.00 0.00 0.00 38 1023.9
20260902100920 82 135 5.0 7.0 0.00 0.00 0.00 33 1023.8
20260902100419 81 155 3.0 6.0 0.00 0.00 0.00 32 1023.9
20260902095921 82 135 3.0 5.0 0.00 0.00 0.00 30 1023.9
20260902095420 81 135 3.0 6.0 0.00 0.00 0.00 31 1023.9
20260902094919 81 135 5.0 8.0 0.00 0.00 0.00 31 1023.8
20260902094422 82 135 3.0 6.0 0.00 0.00 0.00 29 1024.0
20260902093920 82 133 2.0 6.0 0.00 0.00 0.00 29 1024.0
20260902093419 83 158 5.0 6.0 0.00 0.00 0.00 27 1023.9
20260902092921 82 158 2.0 3.0 0.00 0.00 0.00 26 1024.1
20260902092420 84 158 1.0 2.0 0.00 0.00 0.00 26 1024.0
20260902091921 85 148 1.0 2.0 0.00 0.00 0.00 25 1024.1
20260902091420 82 135 0.0 0.0 0.00 0.00 0.00 27 1024.0
20260902090920 79 154 0.0 1.0 0.00 0.00 0.00 34 1024.2
20260902090421 79 135 1.0 2.0 0.00 0.00 0.00 34 1024.1
20260902085921 79 135 0.0 0.0 0.00 0.00 0.00 40 1024.2
20260902085420 77 135 0.0 1.0 0.00 0.00 0.00 41 1024.3
20260902084919 75 152 0.0 1.0 0.00 0.00 0.00 48 1024.2
20260902084421 72 68 0.0 1.0 0.00 0.00 0.00 57 1024.3
20260902083920 71 68 1.0 1.0 0.00 0.00 0.00 55 1024.2
20260902083419 70 158 0.0 1.0 0.00 0.00 0.00 56 1024.4
20260902082921 70 158 0.0 0.0 0.00 0.00 0.00 57 1024.3
20260902082420 70 158 0.0 0.0 0.00 0.00 0.00 58 1024.4
20260902081920 69 158 0.0 0.0 0.00 0.00 0.00 61 1024.2
20260902081421 69 158 0.0 0.0 0.00 0.00 0.00 60 1024.2
20260902080920 68 158 0.0 1.0 0.00 0.00 0.00 58 1024.2
20260902080419 68 135 0.0 1.0 0.00 0.00 0.00 58 1024.2
20260902075921 68 158 0.0 1.0 0.00 0.00 0.00 56 1024.1
20260902075421 68 142 0.0 1.0 0.00 0.00 0.00 56 1024.1
20260902074919 68 158 3.0 5.0 0.00 0.00 0.00 54 1024.0
20260902074421 67 135 0.0 0.0 0.00 0.00 0.00 52 1024.0
20260902073921 67 135 1.0 2.0 0.00 0.00 0.00 56 1024.0
20260902073420 66 158 2.0 3.0 0.00 0.00 0.00 60 1023.9
20260902072920 67 158 2.0 3.0 0.00 0.00 0.00 56 1023.9
20260902072421 67 158 1.0 1.0 0.00 0.00 0.00 55 1023.9
20260902071920 67 158 2.0 3.0 0.00 0.00 0.00 54 1023.9
20260902071420 68 135 0.0 1.0 0.00 0.00 0.00 50 1024.0
20260902070921 69 138 0.0 1.0 0.00 0.00 0.00 43 1023.9
20260902070421 69 158 0.0 1.0 0.00 0.00 0.00 42 1023.8
20260902065920 69 157 2.0 3.0 0.00 0.00 0.00 40 1023.8
20260902065419 70 135 1.0 2.0 0.00 0.00 0.00 39 1023.8
20260902064921 71 135 2.0 5.0 0.00 0.00 0.00 41 1023.8
20260902064421 69 158 1.0 3.0 0.00 0.00 0.00 41 1024.0
20260902063921 68 135 1.0 3.0 0.00 0.00 0.00 39 1023.9
20260902063421 68 135 3.0 6.0 0.00 0.00 0.00 37 1024.0
20260902062920 68 135 3.0 6.0 0.00 0.00 0.00 40 1023.9
20260902062419 68 135 3.0 6.0 0.00 0.00 0.00 40 1023.8
20260902061919 68 135 3.0 6.0 0.00 0.00 0.00 40 1023.8
20260902061421 67 135 2.0 5.0 0.00 0.00 0.00 43 1023.7
20260902060920 66 135 2.0 3.0 0.00 0.00 0.00 48 1023.8
20260902060420 66 158 1.0 3.0 0.00 0.00 0.00 50 1023.8
20260902055919 67 158 0.0 0.0 0.00 0.00 0.00 49 1023.8
20260902055420 67 158 0.0 0.0 0.00 0.00 0.00 48 1023.8
20260902054920 66 158 1.0 2.0 0.00 0.00 0.00 45 1023.7
20260902054420 67 158 1.0 1.0 0.00 0.00 0.00 44 1023.6
20260902053921 66 158 1.0 3.0 0.00 0.00 0.00 40 1023.8
20260902053420 65 158 3.0 5.0 0.00 0.00 0.00 41 1023.6
20260902052920 65 135 3.0 8.0 0.00 0.00 0.00 41 1023.6
20260902052419 64 137 5.0 7.0 0.00 0.00 0.00 44 1023.6
20260902051920 63 158 2.0 5.0 0.00 0.00 0.00 47 1023.6
20260902051420 63 158 2.0 3.0 0.00 0.00 0.00 50 1023.6
20260902050919 63 158 1.0 3.0 0.00 0.00 0.00 51 1023.5
20260902050420 63 158 1.0 1.0 0.00 0.00 0.00 49 1023.5
20260902045921 64 158 3.0 5.0 0.00 0.00 0.00 43 1023.5
20260902045420 65 158 3.0 6.0 0.00 0.00 0.00 42 1023.6
20260902044919 65 135 5.0 7.0 0.00 0.00 0.00 41 1023.6
20260902044420 63 158 6.0 8.0 0.00 0.00 0.00 48 1023.6
20260902043920 63 158 5.0 7.0 0.00 0.00 0.00 49 1023.5
20260902043420 62 158 2.0 3.0 0.00 0.00 0.00 51 1023.5
20260902042921 62 158 1.0 2.0 0.00 0.00 0.00 53 1023.5
20260902042420 63 135 1.0 2.0 0.00 0.00 0.00 51 1023.5
20260902041920 64 135 2.0 5.0 0.00 0.00 0.00 44 1023.5
20260902041421 63 135 1.0 3.0 0.00 0.00 0.00 51 1023.5
20260902040920 63 135 3.0 5.0 0.00 0.00 0.00 50 1023.5
20260902040420 63 135 3.0 5.0 0.00 0.00 0.00 50 1023.5
20260902035631 64 142 1.0 3.0 0.00 0.00 0.00 47 1023.5
20260902035133 64 135 5.0 8.0 0.00 0.00 0.00 45 1023.4
20260902034632 64 135 1.0 6.0 0.00 0.00 0.00 47 1023.5
20260902034132 65 135 3.0 5.0 0.00 0.00 0.00 44 1023.4
20260902033631 65 135 2.0 5.0 0.00 0.00 0.00 44 1023.5
20260902033132 65 135 2.0 5.0 0.00 0.00 0.00 42 1023.4
20260902032633 66 135 2.0 5.0 0.00 0.00 0.00 42 1023.4
20260902032132 65 135 5.0 7.0 0.00 0.00 0.00 43 1023.4
20260902031633 64 157 3.0 6.0 0.00 0.00 0.00 47 1023.3
20260902031132 64 158 2.0 3.0 0.00 0.00 0.00 51 1023.3
20260902030631 64 135 2.0 6.0 0.00 0.00 0.00 49 1023.3
20260902030133 64 135 1.0 1.0 0.00 0.00 0.00 51 1023.3
20260902025632 65 135 1.0 3.0 0.00 0.00 0.00 51 1023.3
20260902025131 65 135 2.0 5.0 0.00 0.00 0.00 50 1023.4
20260902024633 65 135 2.0 3.0 0.00 0.00 0.00 52 1023.3
20260902024132 66 135 2.0 3.0 0.00 0.00 0.00 44 1023.4
20260902023632 67 135 2.0 3.0 0.00 0.00 0.00 43 1023.4
20260902023131 67 135 3.0 6.0 0.00 0.00 0.00 43 1023.4
20260902022633 67 135 6.0 8.0 0.00 0.00 0.00 44 1023.4
20260902022131 66 135 3.0 6.0 0.00 0.00 0.00 46 1023.4
20260902021633 67 135 3.0 5.0 0.00 0.00 0.00 46 1023.4
20260902021131 66 135 2.0 7.0 0.00 0.00 0.00 47 1023.4
20260902020633 66 135 3.0 6.0 0.00 0.00 0.00 47 1023.3
20260902020132 66 135 3.0 3.0 0.00 0.00 0.00 51 1023.4
20260902015631 66 135 2.0 5.0 0.00 0.00 0.00 52 1023.4
20260902015131 67 135 5.0 6.0 0.00 0.00 0.00 50 1023.3
20260902014632 67 135 1.0 2.0 0.00 0.00 0.00 49 1023.4
20260902014132 67 135 3.0 8.0 0.00 0.00 0.00 48 1023.4
20260902013633 66 135 3.0 6.0 0.00 0.00 0.00 50 1023.4
20260902013132 66 135 3.0 6.0 0.00 0.00 0.00 51 1023.4
20260902012633 66 135 3.0 6.0 0.00 0.00 0.00 53 1023.4
20260902012132 66 158 1.0 3.0 0.00 0.00 0.00 52 1023.4
20260902011631 67 136 3.0 6.0 0.00 0.00 0.00 52 1023.5
20260902011133 68 135 3.0 3.0 0.00 0.00 0.00 50 1023.5
20260902010632 68 135 3.0 6.0 0.00 0.00 0.00 50 1023.4
20260902010131 68 135 3.0 6.0 0.00 0.00 0.00 50 1023.4
20260902005632 68 135 3.0 6.0 0.00 0.00 0.00 50 1023.5
20260902005132 68 135 2.0 3.0 0.00 0.00 0.00 51 1023.4
20260902004631 68 135 0.0 1.0 0.00 0.00 0.00 51 1023.4
20260902004132 68 135 3.0 6.0 0.00 0.00 0.00 51 1023.4
20260902003632 68 135 3.0 6.0 0.00 0.00 0.00 52 1023.5
20260902003133 67 135 3.0 7.0 0.00 0.00 0.00 53 1023.4
20260902002632 67 135 5.0 8.0 0.00 0.00 0.00 53 1023.4
20260902002132 67 142 2.0 3.0 0.00 0.00 0.00 55 1023.4
20260902001632 67 135 1.0 3.0 0.00 0.00 0.00 55 1023.5
20260902001132 67 135 2.0 3.0 0.00 0.00 0.00 55 1023.4
20260902000631 67 135 2.0 3.0 0.00 0.00 0.00 56 1023.5
20260902000132 66 135 2.0 3.0 0.00 0.00 0.00 59 1023.5
20260901235632 66 135 2.0 3.0 0.00 0.00 0.00 60 1023.5
20260901235133 66 135 1.0 2.0 0.00 0.00 0.00 60 1023.6
20260901234632 66 135 1.0 2.0 0.00 0.00 0.00 60 1023.6
20260901234131 66 135 1.0 3.0 0.00 0.00 0.00 60 1023.5
20260901233633 66 143 1.0 3.0 0.00 0.00 0.00 60 1023.4
20260901233132 66 135 1.0 2.0 0.00 0.00 0.00 61 1023.6
20260901232632 66 158 2.0 3.0 0.00 0.00 0.00 61 1023.4
20260901232131 66 145 3.0 5.0 0.00 0.00 0.00 61 1023.5
20260901231632 66 139 3.0 5.0 0.00 0.00 0.00 61 1023.6
20260901231132 66 143 1.0 2.0 0.00 0.00 0.00 61 1023.5
20260901230631 67 158 2.0 3.0 0.00 0.00 0.00 61 1023.5
20260901230132 67 158 2.0 3.0 0.00 0.00 0.00 61 1023.4
20260901225632 67 158 6.0 7.0 0.00 0.00 0.00 61 1023.4
20260901225131 67 148 1.0 5.0 0.00 0.00 0.00 61 1023.4
20260901224632 67 129 3.0 6.0 0.00 0.00 0.00 61 1023.4
20260901224132 67 135 1.0 1.0 0.00 0.00 0.00 60 1023.4
20260901223631 67 135 2.0 3.0 0.00 0.00 0.00 60 1023.4
20260901223132 67 126 3.0 5.0 0.00 0.00 0.00 61 1023.4
20260901222632 66 135 1.0 2.0 0.00 0.00 0.00 62 1023.3
20260901222131 67 135 1.0 6.0 0.00 0.00 0.00 62 1023.3
20260901221631 67 135 1.0 3.0 0.00 0.00 0.00 62 1023.3
20260901221132 67 135 2.0 3.0 0.00 0.00 0.00 63 1023.4
20260901220631 66 135 2.0 5.0 0.00 0.00 0.00 63 1023.4
20260901220131 66 135 3.0 3.0 0.00 0.00 0.00 63 1023.4
20260901215632 66 135 2.0 3.0 0.00 0.00 0.00 63 1023.3
20260901215132 66 135 3.0 6.0 0.00 0.00 0.00 63 1023.2
20260901214631 67 135 1.0 2.0 0.00 0.00 0.00 63 1023.2
20260901214132 67 135 1.0 2.0 0.00 0.00 0.00 62 1023.1
20260901213632 67 135 1.0 2.0 0.00 0.00 0.00 62 1023.2
20260901213132 68 135 1.0 3.0 0.00 0.00 0.00 61 1023.1
20260901212631 68 135 2.0 6.0 0.00 0.00 0.00 61 1023.1
20260901212131 68 135 3.0 6.0 0.00 0.00 0.00 62 1023.1
20260901211633 68 135 5.0 6.0 0.00 0.00 0.00 62 1023.2
20260901211132 68 135 1.0 3.0 0.00 0.00 0.00 61 1023.1
20260901210631 69 135 1.0 3.0 0.00 0.00 0.00 61 1023.1
20260901210132 70 135 1.0 2.0 0.00 0.00 0.00 58 1023.1
20260901205632 70 135 2.0 6.0 0.00 0.00 0.00 58 1023.1
20260901205133 70 135 2.0 3.0 0.00 0.00 0.00 59 1023.2
20260901204633 70 135 3.0 5.0 0.00 0.00 0.00 58 1023.1
20260901204133 71 135 2.0 3.0 0.00 0.00 0.00 55 1023.1
20260901203632 72 135 1.0 2.0 0.00 0.00 0.00 53 1023.0
20260901203131 71 135 3.0 5.0 0.00 0.00 0.00 55 1023.0
20260901202632 71 135 5.0 6.0 0.00 0.00 0.00 56 1023.1
20260901202131 71 158 3.0 6.0 0.00 0.00 0.00 56 1023.1
20260901201631 70 155 3.0 7.0 0.00 0.00 0.00 58 1023.1
20260901201132 70 158 1.0 2.0 0.00 0.00 0.00 58 1023.0
20260901200633 71 158 0.0 1.0 0.00 0.00 0.00 58 1023.0
20260901200132 71 158 1.0 2.0 0.00 0.00 0.00 57 1023.0
20260901195632 71 135 2.0 5.0 0.00 0.00 0.00 58 1023.0
20260901195132 71 136 1.0 2.0 0.00 0.00 0.00 58 1022.9
20260901194631 71 140 0.0 1.0 0.00 0.00 0.00 56 1022.9
20260901194131 71 158 2.0 3.0 0.00 0.00 0.00 57 1022.8
20260901193631 71 158 2.0 3.0 0.00 0.00 0.00 59 1022.8
20260901193131 71 158 1.0 3.0 0.00 0.00 0.00 58 1022.8
20260901192632 71 158 1.0 2.0 0.00 0.00 0.00 58 1022.8
20260901192131 71 135 1.0 2.0 0.00 0.00 0.00 58 1022.7
20260901191631 71 158 3.0 3.0 0.00 0.00 0.00 58 1022.6
20260901191132 71 135 3.0 3.0 0.00 0.00 0.00 58 1022.5
20260901190631 71 158 2.0 3.0 0.00 0.00 0.00 57 1022.4
20260901190133 72 158 2.0 3.0 0.00 0.00 0.00 56 1022.3
20260901185632 72 158 2.0 3.0 0.00 0.00 0.00 56 1022.3
20260901185131 72 158 3.0 3.0 0.00 0.00 0.00 56 1022.2
20260901184633 73 158 2.0 3.0 0.00 0.00 0.00 52 1022.2
20260901184132 73 135 0.0 0.0 0.00 0.00 0.00 51 1022.1
20260901183631 73 135 0.0 1.0 0.00 0.00 0.00 50 1022.0
20260901183131 74 158 2.0 3.0 0.00 0.00 0.00 50 1022.0
20260901182632 75 155 0.0 2.0 0.00 0.00 0.00 48 1021.9
20260901182131 75 135 2.0 3.0 0.00 0.00 0.00 48 1021.8
20260901181631 75 135 1.0 3.0 0.00 0.00 0.00 47 1021.8
20260901181132 76 135 2.0 3.0 0.00 0.00 0.00 45 1021.7
20260901180632 77 158 1.0 3.0 0.00 0.00 0.00 43 1021.5
20260901180131 78 158 3.0 6.0 0.00 0.00 0.00 42 1021.6
20260901175632 78 158 3.0 3.0 0.00 0.00 0.00 42 1021.4
20260901175132 78 158 2.0 3.0 0.00 0.00 0.00 43 1021.4
20260901174631 78 158 1.0 3.0 0.00 0.00 0.00 43 1021.4
20260901174132 78 109 2.0 3.0 0.00 0.00 0.00 42 1021.4
20260901173631 79 135 2.0 5.0 0.00 0.00 0.00 42 1021.2
20260901173131 79 135 3.0 5.0 0.00 0.00 0.00 41 1021.2
20260901172633 80 122 5.0 6.0 0.00 0.00 0.00 41 1021.1
20260901172132 81 138 3.0 6.0 0.00 0.00 0.00 40 1021.2
20260901171631 81 135 5.0 6.0 0.00 0.00 0.00 40 1021.1
20260901171131 82 135 5.0 7.0 0.00 0.00 0.00 34 1021.1
20260901170632 82 113 6.0 8.0 0.00 0.00 0.00 33 1021.0
20260901170131 83 135 6.0 7.0 0.00 0.00 0.00 33 1021.0
20260901165632 83 119 6.0 7.0 0.00 0.00 0.00 33 1021.0
20260901165132 83 135 6.0 8.0 0.00 0.00 0.00 33 1020.9
20260901164631 83 127 6.0 10.0 0.00 0.00 0.00 32 1021.0
20260901164131 84 138 7.0 9.0 0.00 0.00 0.00 31 1021.0
20260901163632 84 135 8.0 9.0 0.00 0.00 0.00 32 1020.9
20260901163133 84 135 7.0 10.0 0.00 0.00 0.00 32 1020.9
20260901162632 85 130 7.0 9.0 0.00 0.00 0.00 31 1021.0
20260901162132 85 150 8.0 13.0 0.00 0.00 0.00 31 1020.8
20260901161631 85 126 8.0 14.0 0.00 0.00 0.00 31 1020.9
20260901161132 86 137 6.0 10.0 0.00 0.00 0.00 31 1020.9
20260901160631 85 135 7.0 10.0 0.00 0.00 0.00 31 1020.9
20260901155903 85 158 10.0 13.0 0.00 0.00 0.00 31 1020.9
20260901155403 85 158 9.0 12.0 0.00 0.00 0.00 31 1020.9
20260901154903 86 116 9.0 14.0 0.00 0.00 0.00 30 1021.0
20260901154402 86 134 3.0 5.0 0.00 0.00 0.00 30 1021.0
20260901153902 86 126 8.0 16.0 0.00 0.00 0.00 30 1021.0
20260901153402 86 135 6.0 10.0 0.00 0.00 0.00 30 1020.9
20260901152903 86 125 8.0 14.0 0.00 0.00 0.00 30 1020.8
20260901152403 86 139 9.0 14.0 0.00 0.00 0.00 30 1020.9
20260901151902 86 135 9.0 14.0 0.00 0.00 0.00 30 1020.7
20260901151403 86 135 7.0 9.0 0.00 0.00 0.00 30 1020.7
20260901150903 86 135 9.0 14.0 0.00 0.00 0.00 30 1020.9
20260901150402 86 112 12.0 17.0 0.00 0.00 0.00 30 1020.9
20260901145903 86 135 8.0 10.0 0.00 0.00 0.00 30 1020.8
20260901145402 86 138 7.0 9.0 0.00 0.00 0.00 30 1020.8
20260901144903 85 144 9.0 13.0 0.00 0.00 0.00 30 1020.9
20260901144402 86 132 9.0 15.0 0.00 0.00 0.00 30 1021.0
20260901143902 85 135 13.0 17.0 0.00 0.00 0.00 30 1021.0
20260901143403 86 158 8.0 9.0 0.00 0.00 0.00 30 1021.0
20260901142902 86 153 6.0 10.0 0.00 0.00 0.00 30 1021.0
20260901142401 85 112 7.0 13.0 0.00 0.00 0.00 30 1021.0
20260901141903 86 158 9.0 17.0 0.00 0.00 0.00 28 1021.0
20260901141403 86 132 12.0 16.0 0.00 0.00 0.00 28 1021.1
20260901140902 85 126 8.0 12.0 0.00 0.00 0.00 30 1021.1
20260901140402 85 114 8.0 14.0 0.00 0.00 0.00 30 1021.0
20260901135903 86 112 12.0 17.0 0.00 0.00 0.00 30 1021.0
20260901135403 86 112 8.0 14.0 0.00 0.00 0.00 30 1021.0
20260901134902 86 145 7.0 13.0 0.00 0.00 0.00 29 1021.1
20260901134401 86 121 7.0 9.0 0.00 0.00 0.00 30 1021.0
20260901133903 86 124 8.0 12.0 0.00 0.00 0.00 28 1021.1
20260901133403 86 158 12.0 18.0 0.00 0.00 0.00 28 1021.0
20260901132903 86 124 3.0 6.0 0.00 0.00 0.00 30 1021.1
20260901132402 86 117 6.0 12.0 0.00 0.00 0.00 29 1021.2
20260901131903 85 158 7.0 10.0 0.00 0.00 0.00 30 1021.1
20260901131403 85 122 16.0 20.0 0.00 0.00 0.00 30 1021.2
20260901130902 85 154 8.0 15.0 0.00 0.00 0.00 30 1021.0
20260901130403 85 123 6.0 13.0 0.00 0.00 0.00 30 1021.2
20260901125902 85 135 6.0 10.0 0.00 0.00 0.00 30 1021.2
20260901125401 85 136 9.0 13.0 0.00 0.00 0.00 30 1021.3
20260901124903 84 112 12.0 17.0 0.00 0.00 0.00 30 1021.2
20260901124403 85 146 10.0 13.0 0.00 0.00 0.00 30 1021.3
20260901123902 85 132 8.0 15.0 0.00 0.00 0.00 30 1021.3
20260901123402 85 123 10.0 14.0 0.00 0.00 0.00 30 1021.3
20260901122903 85 114 10.0 13.0 0.00 0.00 0.00 30 1021.4
20260901122402 85 144 9.0 14.0 0.00 0.00 0.00 28 1021.3
20260901121902 85 112 8.0 14.0 0.00 0.00 0.00 30 1021.3
20260901121402 85 117 10.0 14.0 0.00 0.00 0.00 30 1021.2
20260901120902 85 121 5.0 8.0 0.00 0.00 0.00 30 1021.4
20260901120403 85 158 8.0 10.0 0.00 0.00 0.00 30 1021.3
20260901115903 85 158 6.0 8.0 0.00 0.00 0.00 30 1021.3
20260901115402 85 135 9.0 13.0 0.00 0.00 0.00 30 1021.3
20260901114901 85 135 6.0 10.0 0.00 0.00 0.00 28 1021.4
20260901114403 85 143 6.0 8.0 0.00 0.00 0.00 28 1021.5
20260901113903 86 135 9.0 13.0 0.00 0.00 0.00 27 1021.5
20260901113403 86 112 8.0 10.0 0.00 0.00 0.00 26 1021.5
20260901112903 86 132 8.0 12.0 0.00 0.00 0.00 26 1021.5
20260901112402 87 135 3.0 6.0 0.00 0.00 0.00 26 1021.6
20260901111902 86 117 3.0 9.0 0.00 0.00 0.00 27 1021.5
20260901111403 86 125 5.0 9.0 0.00 0.00 0.00 28 1021.7
20260901110903 86 135 6.0 9.0 0.00 0.00 0.00 28 1021.7